Hayden, CO

6:51 AM MST on November 24, 2017 (GMT -0700)
Yampa Valley

Weather History for KHDN - December, 2012

Change the Weather History Date:

Wednesday, December 19, 2012

  Actual Average Record
Temperature  
Mean Temperature 6 °F -  
Max Temperature 17 °F 29 °F 50 °F (1959)
Min Temperature -7 °F 7 °F -15 °F (1970)
Degree Days  
Heating Degree Days 59    
Moisture  
Dew Point 5 °F    
Average Humidity 74    
Maximum Humidity 93    
Minimum Humidity 58    
Precipitation  
Precipitation 0.00 in - - ()
Sea Level Pressure  
Sea Level Pressure 29.87 in    
Wind  
Wind Speed 10 mph (WSW)    
Max Wind Speed 21 mph    
Max Gust Speed 23 mph    
Visibility 7 miles    
Events      
Averages and records for this station are not official NWS values.
T = Trace of Precipitation, MM = Missing Value Source: NWS Daily Summary

Daily Weather History Graph

Daily Weather History Graph

Search for Another Location

Airport or City:

Trip Planner

Search our weather history database for the weather conditions in past years. The results will help you decide how hot, cold, wet, or windy it might be!

Date:

Astronomy

Dec. 19, 2012 Rise Set
Actual Time 7:27 AM MST 4:44 PM MST
Civil Twilight 6:57 AM MST 5:15 PM MST
Nautical Twilight 6:22 AM MST 5:49 PM MST
Astronomical Twilight 5:49 AM MST 6:23 PM MST
Moon 11:36 AM MST (12/19) No Moon Set
Length of Visible Light 10h 18m
Length of Day
9h 16m
Waxing Crescent, 45% of the Moon is Illuminated
Dec 19
Waxing Crescent
Dec 19
First Quarter
Dec 28
Full
Jan 4
Last Quarter
Jan 11
New

Hourly Weather History & Observations

Time (MST) Temp. Windchill Dew Point Humidity Pressure Visibility Wind Dir Wind Speed Gust Speed Precip Events Conditions
12:15 AM 17.6 °F 7.3 °F 14.0 °F 86% 29.60 in 1.2 mi West 8.1 mph - N/A   Overcast
12:55 AM 17.6 °F 7.3 °F 14.0 °F 86% 29.59 in 0.8 mi SSW 8.1 mph - N/A   Overcast
1:15 AM 15.8 °F 2.7 °F 14.0 °F 93% 29.59 in 1.2 mi SW 11.5 mph - N/A   Overcast
1:35 AM 15.8 °F 2.7 °F 12.2 °F 86% 29.58 in 1.0 mi SW 11.5 mph - N/A   Overcast
1:55 AM 17.6 °F 5.0 °F 14.0 °F 86% 29.58 in 1.2 mi SW 11.5 mph - N/A   Overcast
2:15 AM 15.8 °F 2.7 °F 12.2 °F 86% 29.59 in 1.2 mi WSW 11.5 mph - N/A   Overcast
2:35 AM 15.8 °F 4.2 °F 12.2 °F 86% 29.59 in 1.5 mi West 9.2 mph - N/A   Overcast
2:55 AM 15.8 °F 8.6 °F 12.2 °F 86% 29.59 in 1.0 mi WSW 4.6 mph - N/A   Overcast
3:15 AM 15.8 °F 4.2 °F 12.2 °F 86% 29.59 in 1.0 mi SW 9.2 mph - N/A   Overcast
3:35 AM 15.8 °F 4.2 °F 12.2 °F 86% 29.60 in 1.2 mi SW 9.2 mph - N/A   Overcast
3:55 AM 15.8 °F 2.7 °F 12.2 °F 86% 29.62 in 1.0 mi SW 11.5 mph - N/A   Overcast
4:15 AM 15.8 °F 4.2 °F 12.2 °F 86% 29.61 in 1.0 mi SW 9.2 mph - N/A   Overcast
4:35 AM 15.8 °F 7.2 °F 12.2 °F 86% 29.59 in 1.5 mi SSW 5.8 mph - N/A   Overcast
4:55 AM 15.8 °F 6.1 °F 12.2 °F 86% 29.59 in 1.8 mi SSW 6.9 mph - N/A   Overcast
5:15 AM 15.8 °F 3.4 °F 12.2 °F 86% 29.61 in 3.0 mi SW 10.4 mph - N/A   Overcast
5:35 AM 15.8 °F 5.1 °F 12.2 °F 86% 29.63 in 2.0 mi SW 8.1 mph - N/A   Overcast
5:55 AM 15.8 °F 2.7 °F 12.2 °F 86% 29.64 in 1.0 mi SW 11.5 mph - N/A   Overcast
6:15 AM 15.8 °F 4.2 °F 12.2 °F 86% 29.66 in 1.2 mi SW 9.2 mph - N/A   Overcast
6:35 AM 15.8 °F 6.1 °F 10.4 °F 79% 29.67 in 1.2 mi SW 6.9 mph - N/A   Overcast
7:15 AM 15.8 °F 10.2 °F 12.2 °F 86% 29.68 in 1.0 mi NNW 3.5 mph - N/A   Overcast
7:35 AM 15.8 °F 8.6 °F 12.2 °F 86% 29.70 in 1.5 mi West 4.6 mph - N/A   Overcast
7:55 AM 15.8 °F 8.6 °F 10.4 °F 79% 29.71 in 3.0 mi West 4.6 mph - N/A   Overcast
8:35 AM 15.8 °F 2.7 °F 12.2 °F 86% 29.73 in 8.0 mi North 11.5 mph - N/A   Overcast
8:55 AM 15.8 °F 3.4 °F 10.4 °F 79% 29.75 in 10.0 mi NW 10.4 mph - N/A   Overcast
9:35 AM 15.8 °F 2.7 °F 8.6 °F 73% 29.79 in 5.0 mi WNW 11.5 mph - N/A   Overcast
9:55 AM 17.6 °F 2.7 °F 6.8 °F 63% 29.81 in 10.0 mi North 16.1 mph 20.7 mph N/A   Mostly Cloudy
10:15 AM 17.6 °F 8.2 °F 8.6 °F 68% 29.83 in 10.0 mi NNW 6.9 mph - N/A   Mostly Cloudy
10:35 AM 17.6 °F 10.7 °F 6.8 °F 63% 29.84 in 10.0 mi NNE 4.6 mph - N/A   Mostly Cloudy
10:55 AM 17.6 °F 12.3 °F 5.0 °F 58% 29.85 in 10.0 mi North 3.5 mph - N/A   Scattered Clouds
11:15 AM 17.6 °F 8.2 °F 6.8 °F 63% 29.86 in 10.0 mi West 6.9 mph - N/A   Mostly Cloudy
11:35 AM 17.6 °F 5.7 °F 8.6 °F 68% 29.86 in 10.0 mi West 10.4 mph - N/A   Scattered Clouds
12:15 PM 15.8 °F -0.2 °F 6.8 °F 68% 29.87 in 10.0 mi WNW 17.3 mph - N/A   Clear
12:35 PM 15.8 °F -1.1 °F 6.8 °F 68% 29.87 in 10.0 mi West 19.6 mph - N/A   Clear
12:55 PM 15.8 °F -1.1 °F 6.8 °F 68% 29.89 in 9.0 mi WNW 19.6 mph 23.0 mph N/A   Clear
1:15 PM 15.8 °F -0.2 °F 6.8 °F 68% 29.90 in 9.0 mi WNW 17.3 mph 23.0 mph N/A   Clear
1:35 PM 15.8 °F -1.5 °F 5.0 °F 62% 29.91 in 10.0 mi West 20.7 mph - N/A   Clear
1:55 PM 15.8 °F -1.1 °F 5.0 °F 62% 29.92 in 10.0 mi West 19.6 mph - N/A   Clear
2:35 PM 12.2 °F -3.1 °F 3.2 °F 67% 29.95 in 10.0 mi West 13.8 mph - N/A   Clear
2:55 PM 14.0 °F -2.0 °F 3.2 °F 62% 29.97 in 10.0 mi West 16.1 mph - N/A   Clear
3:15 PM 12.2 °F -5.8 °F 1.4 °F 62% 29.98 in 10.0 mi West 19.6 mph - N/A   Clear
3:35 PM 12.2 °F -5.3 °F 1.4 °F 62% 30.01 in 10.0 mi West 18.4 mph - N/A   Clear
3:55 PM 12.2 °F -4.3 °F 1.4 °F 62% 30.02 in 10.0 mi WNW 16.1 mph - N/A   Clear
4:35 PM 10.4 °F -4.1 °F -0.4 °F 62% 30.06 in 10.0 mi WNW 11.5 mph - N/A   Clear
4:55 PM 8.6 °F -7.0 °F -2.2 °F 62% 30.06 in 10.0 mi WNW 12.7 mph - N/A   Clear
5:15 PM 6.8 °F -7.8 °F -2.2 °F 67% 30.08 in 10.0 mi West 10.4 mph - N/A   Clear
5:35 PM 5.0 °F -5.6 °F -5.8 °F 61% 30.09 in 10.0 mi SW 5.8 mph - N/A   Clear
6:15 PM 3.2 °F -7.8 °F -5.8 °F 66% 30.12 in 10.0 mi SW 5.8 mph - N/A   Clear
7:35 PM 6.8 °F - -2.2 °F 67% 30.17 in 10.0 mi Calm Calm - N/A   Clear
7:55 PM 3.2 °F - -5.8 °F 66% 30.18 in 10.0 mi Calm Calm - N/A   Clear
8:15 PM 1.4 °F - -5.8 °F 72% 30.20 in 10.0 mi Calm Calm - N/A   Clear
8:35 PM 3.2 °F -7.8 °F -5.8 °F 66% 30.21 in 10.0 mi South 5.8 mph - N/A   Clear
8:55 PM 1.4 °F - -7.6 °F 66% 30.22 in 10.0 mi Calm Calm - N/A   Clear
9:15 PM -0.4 °F - -7.6 °F 72% 30.23 in 10.0 mi Calm Calm - N/A   Clear
9:35 PM -0.4 °F -12.0 °F -5.8 °F 78% 30.24 in 10.0 mi East 5.8 mph - N/A   Clear
9:55 PM -0.4 °F -12.0 °F -9.4 °F 66% 30.25 in 10.0 mi East 5.8 mph - N/A   Clear
10:35 PM -2.2 °F -18.0 °F -9.4 °F 71% 30.27 in 10.0 mi ESE 9.2 mph - N/A   Clear
10:55 PM -2.2 °F -18.0 °F -7.6 °F 78% 30.28 in 10.0 mi ESE 9.2 mph - N/A   Clear
11:15 PM -5.8 °F -23.4 °F -11.2 °F 77% 30.29 in 10.0 mi ESE 10.4 mph - N/A   Clear
11:35 PM -7.6 °F -25.7 °F -14.8 °F 71% 30.29 in 10.0 mi ESE 10.4 mph - N/A   Clear